Update:Debris from a SL-24 rocket body re-entered the Earths atmosphere on the 20th November, 2012 @ 05:00 GMT ± 1 hour.
Inclination: 98.1° Revolution Number: 18146Predicted Location: 35.5° N, 149.1° E
Debris from a SL-24 rocket body that was launched on the 29th July, 2009, from the Baikonur Cosmodrome, Kazakhstan, for the DMC 2 satellite mission is predicted to re-enter the Earths atmosphere on the 20th November, 2012 @ 05:17 GMT ± 5 hours.
SL-24 DEB 1 35687U 09041G 12324.89161497 .08714178 79576+0 14714-1 0 1977 2 35687 098.0993 287.9176 0010633 165.9296 194.2061 16.15950738181413
Period: 90.26 minutesInclination: 98.1° Apogee: 290 kmPerigee: 284 kmRevolution Number: 18145Predicted Location: 69°N, 8.9°W